Regional Weather Roundup
Issued by NWS

Home | Current Version | Previous Version | Graphics & Text | Print | Product List | Glossary On
Versions: 1 2 3 4 5 6 7 8 9 10 11 12 13 14 15 16 17 18 19 20 21 22 23 24 25 26 27 28 29 30 31 32 33 34 35 36 37 38 39 40 41 42 43 44 45 46 47 48 49 50
997
ASUS43 KMKX 180400
RWRWI

WISCONSIN REGIONAL WEATHER ROUNDUP
NATIONAL WEATHER SERVICE MILWAUKEE/SULLIVAN WI
1000 PM CST TUE JAN 17 2017

NOTE: "FAIR" INDICATES FEW OR NO CLOUDS BELOW 12,000 FEET WITH NO
SIGNIFICANT WEATHER AND/OR OBSTRUCTIONS TO VISIBILITY.

WIZ001-002-006>008-014>016-023>028-180500-
NORTHWEST WISCONSIN

CITY           SKY/WX    TMP DP  RH WIND       PRES   REMARKS
SUPERIOR ARPT  CLOUDY    28  23  82 SW8       29.91S WCI  19
ASHLAND        NOT AVBL
HAYWARD        CLOUDY    24  21  88 SW6       29.93R WCI  17
SIREN          CLOUDY    31  31  99 SW8       29.96R FOG     WCI  24
CUMBERLAND     FOG       30  28  93 SW10      29.94F VSB 1/4 WCI  21
RICE LAKE      FOG       29  29  99 SW5       29.98R VSB<1/4 WCI  24
CHETEK         NOT AVBL
LADYSMITH      CLOUDY    29  28  96 SW5       29.95S WCI  24
EAU CLAIRE     NOT AVBL
MENOMONIE      FOG       32  32 100 SW7       29.99S VSB 1/2 WCI  26
NEW RICHMOND   CLOUDY    31  31 100 SW8       29.98S FOG     WCI  24
OSCEOLA        CLOUDY    32  32 100 SW5       30.01S WCI  27
$$

WIZ003>005-009-010-017-018-180500-
NORTH CENTRAL WISCONSIN

CITY           SKY/WX    TMP DP  RH WIND       PRES   REMARKS
MANITOWISH WTR NOT AVBL
ARBOR VITAE    FOG       22  21  94 CALM      29.89S VSB 3/4
WOODRUFF       FOG       22  21  94 CALM      29.89S VSB 3/4
RHINELANDER    CLOUDY    25  24  96 W5        29.90R WCI  19
EAGLE RIVER    CLOUDY    21  21  99 CALM      29.88S
LAND O LAKES   CLOUDY    19  17  95 CALM      29.90S
PHILLIPS       FOG      N/A N/A N/A CALM      29.91S VSB 1/2
TOMAHAWK       CLEAR     27  26  96 CALM      29.91S
MEDFORD        CLEAR     30  29  96 W6        29.92S WCI  24
MERRILL          N/A     31  31 100 CALM        N/A  FOG
$$

WIZ029-030-035-036-043>047-180500-
CENTRAL WISCONSIN

CITY           SKY/WX    TMP DP  RH WIND       PRES   REMARKS
WAUSAU         CLEAR     32  31  96 NW5       29.92R WCI  27
MOSINEE        CLEAR     32  32 100 W3        29.94R FOG
MARSHFIELD     FOG       30  29  96 W10       29.93R VSB 1   WCI  21
STEVENS POINT  MOCLDY    32  32 100 W3        29.94S FOG
WAUPACA        CLOUDY    35  34  94 CALM      29.95R FOG
WAUTOMA        CLOUDY    34  33  96 SW3       29.96R FOG
WISC RAPIDS    NOT AVBL
CAMP DOUGLAS   NOT AVBL
$$

WIZ011>013-019>022-031-037>040-048>050-180500-
NORTHEAST WISCONSIN

CITY           SKY/WX    TMP DP  RH WIND       PRES   REMARKS
ANTIGO         FOG       25  25 100 CALM      29.91R VSB 1/4
SHAWANO        CLOUDY    34  33  95 CALM      29.93S FOG
OCONTO         CLOUDY    32  32  99 W3        29.93R VSB 3/4
STURGEON BAY   FOG       32  32 100 NW5       29.93S VSB 3/4 WCI  27
GREEN BAY      FOG       35  35 100 W3        29.94S VSB 3/4
MANITOWOC      NOT AVBL
APPLETON       FOG       34  34 100 VRB5      29.92S VSB 1/2 WCI  30
CLINTONVILLE   CLOUDY    34  32  93 SW3       29.93S FOG
OSHKOSH        CLOUDY    33  33 100 W5        29.94S FOG     WCI  29
$$

WIZ032>034-041-042-053>061-180500-
SOUTHWEST WISCONSIN

CITY           SKY/WX    TMP DP  RH WIND       PRES   REMARKS
LA CROSSE      CLOUDY    36  32  85 W6        30.02R FOG     WCI  31
SPARTA         CLOUDY    33  33 100 W5        30.01R FOG     WCI  28
VIROQUA        CLOUDY    33  33 100 W8        29.99R VSB 1/4 WCI  26
BOSCOBEL       CLOUDY    35  33  92 SW6       30.03R FOG     WCI  30
PRAIRIE DU CHI CLOUDY    34  33  96 W5        30.04R FOG     WCI  30
PLATTEVILLE    CLOUDY    34  34 100 W8        30.01R WCI  27
$$

WIZ056-057-062-063-064-067-068-180500-
SOUTH CENTRAL WISCONSIN

CITY           SKY/WX    TMP DP  RH WIND       PRES   REMARKS
REEDSBURG      CLOUDY    33  33 100 W5        29.98R FOG     WCI  29
BARABOO/DELLS  FOG       33  33  99 W5        29.97R VSB 1   WCI  29
LONE ROCK      CLOUDY    34  32  92 W7        30.01R FOG     WCI  28
MINERAL POINT  FOG       34  34 100 W8        29.99R VSB 3/4 WCI  27
MADISON        CLOUDY    33  33 100 W6        29.99R FOG     WCI  28
MIDDLETON      CLOUDY    35  35 100 W7        29.98R WCI  29
WATERTOWN      CLOUDY    33  33 100 W5        29.95S FOG     WCI  28
MONROE         CLOUDY    32  32 100 W10       29.98S WCI  24
JANESVILLE     CLOUDY    34  34 100 W7        29.98S WCI  28
$$

WIZ051-052-058>065-066-070>072-180500-
SOUTHEAST WISCONSIN

CITY           SKY/WX    TMP DP  RH WIND       PRES   REMARKS
MILWAUKEE      CLOUDY    36  33  89 W9        29.95S WCI  29
WAUKESHA       CLOUDY    32  32 100 W8        29.95S FOG     WCI  25
MILWAUKEE/TIMM CLOUDY    34  32  93 W6        29.96R FOG     WCI  29
RACINE         CLOUDY    35  33  92 W7        29.97S WCI  29
KENOSHA        CLOUDY    34  33  96 W9        29.96S FOG     WCI  27
FOND DU LAC    CLOUDY    34  31  88 W5        29.94S WCI  30
SHEBOYGAN      CLOUDY    34  32  92 NW6       29.94R FOG     WCI  29
WEST BEND      CLOUDY    32  32 100 NW5       29.94S FOG     WCI  27
JUNEAU         CLOUDY    32  32  99 W3        29.96R FOG
$$

LSZ147-162-180500-
LAKE SUPERIOR

STATION/POSITION TIME  TEMP    WIND        PRES    WAVE
                       AIR SEA DIR/SP/G            HT/PER
                 (UTC) (F)     (DEG/KT/KT) (MB)    (FT/S)
DEVILS ISLAND    0300   33     190/  8/ 10 1012.5F
PORT WING        0330   29     200/  6/  8 1012.9R
SAXON HARBOR     0340   21     200/  3/  6 1012.2F
$$

LMZ867-665-643>646-180500-
LAKE MICHIGAN

STATION/POSITION TIME  TEMP    WIND        PRES    WAVE
                       AIR SEA DIR/SP/G            HT/PER
                 (UTC) (F)     (DEG/KT/KT) (MB)    (FT/S)
NORTHPORT PIER   0340   33        CALM     1013.2R
SISTER BAY       0350   32        CALM       N/A
ALGOMA LAKESHORE 0153          320/  4/  6   N/A
KEWAUNEE LAKESHO 0330   33     300/  3/  5 1012.9R
SHEBOYGAN LAKESH 0300   34     300/  7/  9 1014.0R
PORT WASHINGTON  0340   35     290/  4/  7 1014.9S
MILWAUKEE LAKESH 0330   35     290/  7/  8   N/A
KENOSHA   LAKESH 0300   35     260/  7/ 11 1014.6
$$

TC  - TEMPERATURE IN CELSIUS
VSB - VISIBILITY IN STATUTE MILES
WCI - WIND CHILL INDEX
HX  - HEAT INDEX





USA.gov is the U.S. government's official web portal to all federal, state and local government web resources and services.